CW9181 Weather Reports


Display with metric or nautical units.
time (UTC)temp
F
wind
direction
speed
MPH
gust
MPH
rain 1hr
in
rain 24hr
in
rain mn
in
humidity
%
barometer
mb
20260505001819 55 105 3.0 9.0 0.08 0.24 0.24 90 1015.0
20260505000817 56 91 3.0 8.0 0.09 0.24 0.24 90 1015.0
20260504235815 56 69 3.0 7.0 0.10 0.23 0.23 90 1015.2
20260504234816 57 102 3.0 5.0 0.09 0.20 0.20 90 1015.2
20260504233833 56 109 1.0 5.0 0.08 0.18 0.18 90 1015.1
20260504232812 56 96 2.0 5.0 0.08 0.17 0.17 90 1015.0
20260504231811 56 80 3.0 6.0 0.08 0.16 0.16 89 1015.1
20260504230809 57 99 4.0 7.0 0.08 0.15 0.15 89 1015.2
20260504225827 57 96 4.0 7.0 0.06 0.13 0.13 88 1015.1
20260504224807 57 116 2.0 5.0 0.05 0.11 0.11 88 1015.2
20260504223802 57 126 2.0 7.0 0.05 0.10 0.10 87 1015.2
20260504222820 57 142 4.0 7.0 0.04 0.09 0.09 86 1015.2
20260504221819 57 102 4.0 7.0 0.04 0.08 0.08 86 1015.3
20260504220833 58 104 3.0 7.0 0.03 0.07 0.07 86 1015.4
20260504215833 58 122 4.0 7.0 0.02 0.06 0.07 85 1015.3
20260504214809 58 110 3.0 6.0 0.02 0.06 0.06 83 1015.4
20260504213806 58 128 3.0 6.0 0.01 0.05 0.05 82 1015.3
20260504212805 59 93 2.0 7.0 0.01 0.05 0.05 81 1015.5
20260504211806 59 174 3.0 6.0 0.00 0.04 0.04 81 1015.4
20260504210805 59 124 2.0 7.0 0.00 0.04 0.04 81 1015.6
20260504205808 59 182 2.0 7.0 0.00 0.04 0.04 81 1015.4
20260504204810 59 174 2.0 4.0 0.00 0.04 0.04 83 1015.3
20260504203807 59 149 4.0 8.0 0.01 0.04 0.04 81 1015.5
20260504202808 59 153 5.0 7.0 0.01 0.04 0.04 83 1015.2
20260504201809 59 152 3.0 7.0 0.01 0.04 0.04 83 1015.4
20260504200804 59 134 0.0 3.0 0.01 0.04 0.04 83 1015.2
20260504195803 58 181 1.0 4.0 0.01 0.04 0.04 82 1015.3
20260504194807 58 249 0.0 4.0 0.01 0.04 0.04 81 1015.4
20260504193810 58 138 2.0 6.0 0.00 0.03 0.03 81 1015.6
20260504192802 58 140 1.0 6.0 0.00 0.03 0.03 81 1015.6
20260504191826 58 151 3.0 8.0 0.00 0.03 0.03 83 1015.5
20260504190805 58 218 3.0 5.0 0.00 0.03 0.03 84 1015.4
20260504185802 57 195 1.0 9.0 0.00 0.03 0.03 84 1015.5
20260504184805 57 232 3.0 9.0 0.01 0.03 0.03 84 1015.6
20260504183806 57 158 3.0 10.0 0.02 0.03 0.03 84 1015.7
20260504182813 57 168 3.0 9.0 0.03 0.03 0.03 85 1015.7
20260504181813 57 141 2.0 4.0 0.03 0.03 0.03 86 1015.8
20260504180813 57 142 2.0 4.0 0.03 0.03 0.03 86 1015.8
20260504175831 56 150 3.0 9.0 0.03 0.03 0.03 85 1015.6
20260504174831 57 170 3.0 7.0 0.02 0.02 0.02 83 1015.4
20260504173815 57 186 3.0 8.0 0.01 0.01 0.01 82 1015.3
20260504172808 57 157 4.0 10.0 0.00 0.00 0.00 81 1015.2
20260504171826 57 163 3.0 10.0 0.00 0.00 0.00 79 1015.2
20260504170818 57 184 3.0 9.0 0.00 0.00 0.00 79 1015.2
20260504150817 56 120 5.0 9.0 0.00 0.00 0.00 82 1014.8
20260504140815 55 107 4.0 7.0 0.00 0.00 0.00 85 1014.7
20260504130813 55 154 4.0 9.0 0.00 0.00 0.00 84 1014.3
20260504081812 55 189 3.0 6.0 0.00 0.00 0.00 80 1014.1
20260504080816 55 126 3.0 6.0 0.00 0.00 0.00 80 1014.3
20260504045813 60 187 2.0 7.0 0.00 0.00 0.00 69 1013.4
20260504044831 60 176 5.0 8.0 0.00 0.00 0.00 68 1013.3
20260504043809 61 197 3.0 6.0 0.00 0.00 0.00 68 1013.2
20260504042807 61 241 1.0 7.0 0.00 0.00 0.00 68 1013.0
20260504041804 61 141 3.0 9.0 0.00 0.00 0.00 67 1012.9
20260504040804 62 214 2.0 11.0 0.00 0.00 0.00 66 1012.9
20260504035839 62 252 3.0 10.0 0.00 0.00 0.00 66 1012.7
20260504034818 62 214 6.0 12.0 0.00 0.00 0.00 65 1012.6
20260504033819 62 203 4.0 9.0 0.00 0.00 0.00 65 1012.6
20260504032814 62 172 4.0 13.0 0.00 0.00 0.00 64 1012.5
20260504031815 63 208 2.0 11.0 0.00 0.00 0.00 64 1012.4
20260504030816 63 201 3.0 9.0 0.00 0.00 0.00 63 1012.3
20260504025811 64 224 4.0 10.0 0.00 0.00 0.00 62 1012.2
20260504024809 64 159 3.0 10.0 0.00 0.00 0.00 60 1011.9
20260504023808 65 182 5.0 11.0 0.00 0.00 0.00 59 1011.9
20260504022824 65 193 4.0 11.0 0.00 0.00 0.00 59 1011.8
20260504021822 66 208 4.0 11.0 0.00 0.00 0.00 58 1011.9
20260504020804 66 212 4.0 10.0 0.00 0.00 0.00 57 1011.6
20260504015816 67 192 2.0 8.0 0.00 0.00 0.00 56 1011.7
20260504014815 68 228 2.0 12.0 0.00 0.00 0.00 56 1011.8
20260504013836 68 260 5.0 13.0 0.00 0.00 0.00 55 1011.6
20260504012808 68 196 5.0 15.0 0.00 0.00 0.00 54 1011.4
20260504011828 69 260 6.0 10.0 0.00 0.00 0.00 53 1011.3
20260504010806 70 260 2.0 10.0 0.00 0.00 0.00 52 1011.4
20260504005821 70 228 4.0 11.0 0.00 0.00 0.00 53 1011.4
20260504004803 69 238 3.0 9.0 0.00 0.00 0.00 53 1011.3
20260504003822 69 238 6.0 12.0 0.00 0.00 0.00 53 1011.4
20260504002838 69 238 5.0 11.0 0.00 0.00 0.00 53 1011.3